FW7889 Weather Reports


Display with metric or nautical units.
time (UTC)temp
F
wind
direction
speed
MPH
gust
MPH
rain 1hr
in
rain 24hr
in
rain mn
in
humidity
%
barometer
mb
20260905202301 69 326 4.0 5.0 0.00 0.00 0.00 79 1067.9
20260905201258 68 282 0.0 0.0 0.00 0.00 0.00 80 1067.7
20260905200254 68 301 1.0 1.0 0.00 0.00 0.00 82 1067.8
20260905195253 68 178 1.0 1.0 0.00 0.00 0.00 82 1067.6
20260905194248 68 58 2.0 2.0 0.00 0.00 0.00 81 1067.5
20260905193243 70 281 0.0 1.0 0.00 0.00 0.00 76 1067.5
20260905192241 69 290 1.0 2.0 0.00 0.00 0.00 78 1067.5
20260905191238 68 336 0.0 1.0 0.00 0.00 0.00 83 1067.4
20260905190236 67 293 0.0 1.0 0.00 0.00 0.00 86 1067.6
20260905185236 67 306 2.0 2.0 0.00 0.00 0.00 86 1067.7
20260905184235 67 304 1.0 1.0 0.00 0.00 0.00 86 1067.7
20260905183230 66 315 1.0 2.0 0.00 0.00 0.00 89 1067.7
20260905182230 67 314 1.0 2.0 0.00 0.00 0.00 86 1067.7
20260905181230 69 306 3.0 3.0 0.00 0.00 0.00 79 1067.7
20260905180226 69 348 5.0 6.0 0.00 0.00 0.00 78 1067.5
20260905175227 68 320 3.0 3.0 0.00 0.00 0.00 81 1067.8
20260905174223 69 339 3.0 5.0 0.00 0.00 0.00 80 1067.6
20260905173221 69 316 1.0 1.0 0.00 0.00 0.00 80 1067.5
20260905172220 69 293 1.0 1.0 0.00 0.00 0.00 81 1067.5
20260905171218 68 332 3.0 3.0 0.00 0.00 0.00 82 1067.5
20260905170215 69 292 1.0 1.0 0.00 0.00 0.00 80 1067.3
20260905165210 68 316 1.0 1.0 0.00 0.00 0.00 84 1067.3
20260905164210 68 316 2.0 2.0 0.00 0.00 0.00 83 1067.8
20260905163208 68 333 3.0 3.0 0.00 0.00 0.00 82 1067.7
20260905162204 68 306 1.0 1.0 0.00 0.00 0.00 78 1067.8
20260905161203 69 297 1.0 2.0 0.00 0.00 0.00 82 1067.8
20260905160201 69 336 1.0 1.0 0.00 0.00 0.00 78 1067.9
20260905155201 67 75 2.0 2.0 0.00 0.00 0.00 83 1067.9
20260905154156 66 324 3.0 3.0 0.00 0.00 0.00 84 1068.1
20260905153154 66 28 3.0 3.0 0.00 0.00 0.00 82 1068.1
20260905152149 66 92 2.0 2.0 0.00 0.00 0.00 83 1068.2
20260905151145 65 313 1.0 1.0 0.00 0.00 0.00 86 1068.2
20260905150144 64 327 5.0 6.0 0.00 0.00 0.00 87 1068.4
20260905145142 64 303 0.0 0.0 0.00 0.00 0.00 89 1068.3
20260905144142 65 328 4.0 5.0 0.00 0.00 0.00 89 1068.3
20260905143137 64 311 1.0 1.0 0.00 0.00 0.00 88 1068.3
20260905142136 63 342 2.0 3.0 0.00 0.00 0.00 91 1068.4
20260905141132 62 342 2.0 2.0 0.00 0.00 0.00 93 1068.5
20260905140132 61 304 0.0 1.0 0.00 0.00 0.00 95 1068.4
20260905135129 60 300 1.0 1.0 0.00 0.00 0.00 98 1068.4
20260905134128 60 305 0.0 1.0 0.00 0.00 0.00 99 1068.5
20260905133124 59 300 0.0 1.0 0.00 0.00 0.00 99 1068.4
20260905132124 58 291 0.0 0.0 0.00 0.00 0.00 99 1068.8
20260905131120 58 319 1.0 2.0 0.00 0.00 0.00 99 1068.7
20260905130120 58 299 0.0 0.0 0.00 0.00 0.00 99 1068.8
20260905125116 58 297 1.0 1.0 0.00 0.00 0.00 99 1068.8
20260905124114 58 291 0.0 0.0 0.00 0.00 0.00 99 1068.4
20260905123112 57 298 0.0 1.0 0.00 0.00 0.00 99 1068.3
20260905122112 57 282 0.0 0.0 0.00 0.00 0.00 99 1068.1
20260905121108 57 282 0.0 0.0 0.00 0.00 0.00 99 1068.4
20260905120108 57 293 0.0 0.0 0.00 0.00 0.00 99 1068.2
20260905115108 57 312 1.0 1.0 0.00 0.00 0.00 99 1068.1
20260905114106 57 282 1.0 1.0 0.00 0.00 0.00 99 1068.1
20260905113103 57 272 0.0 0.0 0.00 0.00 0.00 99 1067.7
20260905112059 57 283 0.0 0.0 0.00 0.00 0.00 99 1067.4
20260905111059 57 81 3.0 3.0 0.00 0.00 0.00 99 1067.5
20260905110059 57 289 1.0 1.0 0.00 0.00 0.00 99 1067.5
20260905105059 57 284 0.0 0.0 0.00 0.00 0.00 99 1067.2
20260905104054 57 284 0.0 0.0 0.00 0.00 0.00 99 1067.2
20260905103052 56 284 0.0 0.0 0.00 0.00 0.00 99 1067.3
20260905102050 56 280 0.0 0.0 0.00 0.00 0.00 99 1067.3
20260905101046 56 299 0.0 1.0 0.00 0.00 0.00 99 1067.2
20260905100043 56 284 0.0 0.0 0.00 0.00 0.00 99 1067.2
20260905095038 55 284 0.0 0.0 0.00 0.00 0.00 99 1067.1
20260905094038 55 286 0.0 0.0 0.00 0.00 0.00 99 1067.1
20260905093035 54 295 0.0 0.0 0.00 0.00 0.00 99 1067.2
20260905092031 54 298 0.0 1.0 0.00 0.00 0.00 99 1067.2
20260905091030 54 296 0.0 0.0 0.00 0.00 0.00 99 1067.2
20260905090026 55 301 1.0 1.0 0.00 0.00 0.00 99 1067.1
20260905085020 55 286 0.0 0.0 0.00 0.00 0.00 99 1067.2
20260905084020 55 287 0.0 0.0 0.00 0.00 0.00 99 1067.2
20260905083018 55 284 0.0 0.0 0.00 0.00 0.00 99 1067.2
20260905082015 55 284 0.0 0.0 0.00 0.00 0.00 99 1067.1
20260905081014 55 285 0.0 0.0 0.00 0.00 0.00 99 1067.1
20260905080009 55 285 0.0 0.0 0.00 0.00 0.00 99 1067.5
20260905075008 55 286 0.0 0.0 0.00 0.00 0.00 99 1067.4
20260905074005 55 286 0.0 0.0 0.00 0.00 0.00 99 1067.3
20260905073001 55 286 0.0 0.0 0.00 0.00 0.00 99 1067.1
20260905071957 55 289 0.0 0.0 0.00 0.00 0.00 99 1067.1
20260905070953 56 312 0.0 0.0 0.00 0.00 0.00 99 1067.3
20260905065949 55 284 0.0 0.0 0.00 0.00 0.00 99 1067.4
20260905064949 55 289 0.0 0.0 0.00 0.00 0.00 99 1067.4
20260905063944 54 287 0.0 0.0 0.00 0.00 0.00 99 1067.4
20260905062941 55 284 0.0 0.0 0.00 0.00 0.00 99 1067.5
20260905061936 55 284 0.0 0.0 0.00 0.00 0.00 99 1067.4
20260905060935 55 284 0.0 0.0 0.00 0.00 0.00 99 1067.2
20260905055931 56 284 0.0 0.0 0.00 0.00 0.00 99 1067.3
20260905054931 55 284 0.0 0.0 0.00 0.00 0.00 99 1067.5
20260905053926 56 287 0.0 0.0 0.00 0.00 0.00 99 1067.6
20260905052923 56 284 0.0 0.0 0.00 0.00 0.00 99 1067.4
20260905051922 57 284 0.0 0.0 0.00 0.00 0.00 99 1067.6
20260905050921 57 287 0.0 0.0 0.00 0.00 0.00 99 1067.6
20260905045918 57 289 0.0 0.0 0.00 0.00 0.00 99 1067.7
20260905044915 57 298 0.0 0.0 0.00 0.00 0.00 99 1067.6
20260905043914 58 289 0.0 0.0 0.00 0.00 0.00 99 1067.8
20260905042914 58 286 0.0 0.0 0.00 0.00 0.00 99 1067.9
20260905041910 59 293 0.0 0.0 0.00 0.00 0.00 99 1067.5
20260905040906 59 292 0.0 0.0 0.00 0.00 0.00 99 1067.7
20260905035905 60 284 0.0 0.0 0.00 0.00 0.00 99 1067.4
20260905034903 60 283 0.0 0.0 0.00 0.00 0.00 99 1067.5
20260905033903 61 284 0.0 0.0 0.00 0.00 0.00 99 1067.5
20260905032904 61 284 0.0 0.0 0.00 0.00 0.00 99 1067.3
20260905031900 61 284 0.0 0.0 0.00 0.00 0.00 99 1067.4
20260905030857 61 285 0.0 0.0 0.00 0.00 0.00 99 1067.7
20260905025858 61 284 0.0 0.0 0.00 0.00 0.00 99 1067.7
20260905024856 62 284 0.0 0.0 0.00 0.00 0.00 99 1067.8
20260905023851 62 284 0.0 0.0 0.00 0.00 0.00 99 1067.7
20260905022851 62 284 0.0 0.0 0.00 0.00 0.00 99 1068.0
20260905021847 62 285 0.0 0.0 0.00 0.00 0.00 99 1068.0
20260905020843 62 284 0.0 0.0 0.00 0.00 0.00 99 1067.8
20260905015843 62 284 0.0 0.0 0.00 0.00 0.00 99 1067.6
20260905014842 62 284 0.0 0.0 0.00 0.00 0.00 99 1067.9
20260905013838 62 287 0.0 0.0 0.00 0.00 0.00 99 1067.8
20260905012834 62 288 0.0 0.0 0.00 0.00 0.00 99 1067.9
20260905011833 62 295 0.0 0.0 0.00 0.00 0.00 99 1067.7
20260905010828 63 295 0.0 0.0 0.00 0.00 0.00 99 1067.9
20260905005825 63 289 0.0 1.0 0.00 0.00 0.00 99 1068.1
20260905004821 63 295 1.0 1.0 0.00 0.00 0.00 99 1068.1
20260905003817 63 295 0.0 1.0 0.00 0.00 0.00 99 1068.2
20260905002814 63 285 0.0 0.0 0.00 0.00 0.00 99 1067.7
20260905001809 63 285 1.0 1.0 0.00 0.00 0.00 99 1067.8
20260905000804 64 276 0.0 1.0 0.00 0.00 0.00 97 1067.7
20260904235800 64 280 0.0 0.0 0.00 0.00 0.00 94 1067.5
20260904234756 64 279 0.0 0.0 0.00 0.00 0.00 93 1067.3
20260904233753 66 283 0.0 0.0 0.00 0.00 0.00 93 1067.5
20260904232751 66 284 0.0 0.0 0.00 0.00 0.00 90 1067.4
20260904231748 66 286 0.0 0.0 0.00 0.00 0.00 88 1067.4
20260904230744 67 295 0.0 0.0 0.00 0.00 0.00 87 1067.3
20260904225743 67 295 0.0 0.0 0.00 0.00 0.00 87 1067.3
20260904224742 67 286 0.0 0.0 0.00 0.00 0.00 87 1067.0
20260904223737 67 292 0.0 0.0 0.00 0.00 0.00 87 1067.1
20260904222734 67 305 1.0 1.0 0.00 0.00 0.00 87 1067.1
20260904221735 67 301 1.0 1.0 0.00 0.00 0.00 86 1067.4
20260904220730 68 313 1.0 2.0 0.00 0.00 0.00 85 1067.1
20260904215731 68 326 2.0 2.0 0.00 0.00 0.00 84 1067.2
20260904214727 68 333 2.0 2.0 0.00 0.00 0.00 83 1067.2
20260904213727 69 300 2.0 2.0 0.00 0.00 0.00 81 1067.2
20260904212724 69 333 3.0 5.0 0.00 0.00 0.00 80 1067.3
20260904211725 69 299 1.0 1.0 0.00 0.00 0.00 81 1067.3
20260904210720 69 311 1.0 2.0 0.00 0.00 0.00 79 1067.2
20260904205717 69 355 3.0 3.0 0.00 0.00 0.00 77 1067.1
20260904204715 70 334 3.0 3.0 0.00 0.00 0.00 77 1067.3
20260904203713 70 285 2.0 3.0 0.00 0.00 0.00 77 1067.3